Black River Falls, WI

11:48 PM CST on December 17, 2017 (GMT -0600)
Black River Falls Area

Weather History for KBCK - March, 2013

Change the Weather History Date:

Monday, March 18, 2013

  Actual Average (KCMY) Record (KCMY)
Temperature  
Mean Temperature 24 °F -  
Max Temperature 32 °F 42 °F 80 °F (2012)
Min Temperature 17 °F 23 °F -8 °F (1959)
Degree Days  
Heating Degree Days 40    
Moisture  
Dew Point 18 °F    
Average Humidity 85    
Maximum Humidity 100    
Minimum Humidity 68    
Precipitation  
Precipitation 0.18 in - - ()
Sea Level Pressure  
Sea Level Pressure 29.73 in    
Wind  
Wind Speed 7 mph (SSE)    
Max Wind Speed 22 mph    
Max Gust Speed 28 mph    
Visibility 5 miles    
Events Snow    
Averages and records for this station are not official NWS values.
T = Trace of Precipitation, MM = Missing Value Source: NWS Daily Summary

Daily Weather History Graph

Daily Weather History Graph

Search for Another Location

Airport or City:

Trip Planner

Search our weather history database for the weather conditions in past years. The results will help you decide how hot, cold, wet, or windy it might be!

Date:

Astronomy

Mar. 18, 2013 Rise Set
Actual Time 7:09 AM CDT 7:13 PM CDT
Civil Twilight 6:40 AM CDT 7:42 PM CDT
Nautical Twilight 6:07 AM CDT 8:16 PM CDT
Astronomical Twilight 5:32 AM CDT 8:51 PM CDT
Moon 10:57 AM CDT 1:25 AM CDT
Length of Visible Light 13h 01m
Length of Day
12h 03m
Waxing Crescent, 41% of the Moon is Illuminated
Mar 18
Waxing Crescent
Mar 19
First Quarter
Mar 27
Full
Apr 2
Last Quarter
Apr 10
New

Hourly Weather History & Observations

Time (CDT) Temp. Windchill Dew Point Humidity Pressure Visibility Wind Dir Wind Speed Gust Speed Precip Events Conditions
12:15 AM 21.2 °F 13.6 °F 14.0 °F 74% 29.97 in 10.0 mi East 5.8 mph - N/A   Clear
12:35 AM 21.2 °F 12.6 °F 14.0 °F 74% 29.97 in 10.0 mi East 6.9 mph - N/A   Clear
12:55 AM 21.2 °F 13.6 °F 14.0 °F 74% 29.97 in 10.0 mi East 5.8 mph - N/A   Clear
1:15 AM 19.4 °F 12.8 °F 14.0 °F 80% 29.96 in 10.0 mi East 4.6 mph - N/A   Clear
1:35 AM 19.4 °F 11.5 °F 14.0 °F 80% 29.96 in 10.0 mi East 5.8 mph - N/A   Clear
1:55 AM 19.4 °F 14.3 °F 14.0 °F 80% 29.95 in 10.0 mi East 3.5 mph - N/A   Clear
2:15 AM 17.6 °F 9.3 °F 12.2 °F 79% 29.94 in 10.0 mi East 5.8 mph - N/A   Clear
2:35 AM 17.6 °F 10.7 °F 12.2 °F 79% 29.93 in 10.0 mi East 4.6 mph - N/A   Clear
2:55 AM 17.6 °F 9.3 °F 12.2 °F 79% 29.91 in 10.0 mi East 5.8 mph - N/A   Clear
3:15 AM 17.6 °F 10.7 °F 12.2 °F 79% 29.90 in 10.0 mi East 4.6 mph - N/A   Clear
3:35 AM 17.6 °F 9.3 °F 12.2 °F 79% 29.89 in 10.0 mi East 5.8 mph - N/A   Clear
3:55 AM 17.6 °F 7.3 °F 14.0 °F 86% 29.86 in 10.0 mi East 8.1 mph - N/A   Clear
4:15 AM 17.6 °F 10.7 °F 14.0 °F 86% 29.86 in 10.0 mi East 4.6 mph - N/A   Clear
4:35 AM 17.6 °F 9.3 °F 14.0 °F 86% 29.84 in 10.0 mi East 5.8 mph - N/A   Clear
4:55 AM 17.6 °F 12.3 °F 14.0 °F 86% 29.82 in 10.0 mi East 3.5 mph - N/A   Clear
5:15 AM 17.6 °F 10.7 °F 14.0 °F 86% 29.82 in 10.0 mi East 4.6 mph - N/A   Mostly Cloudy
5:35 AM 19.4 °F 11.5 °F 15.8 °F 86% 29.81 in 10.0 mi East 5.8 mph - N/A   Overcast
5:55 AM 21.2 °F 14.9 °F 17.6 °F 86% 29.80 in 10.0 mi East 4.6 mph - N/A   Overcast
6:15 AM 21.2 °F 14.9 °F 17.6 °F 86% 29.79 in 10.0 mi East 4.6 mph - N/A   Overcast
6:35 AM 21.2 °F 11.7 °F 17.6 °F 86% 29.78 in 10.0 mi ESE 8.1 mph - N/A Snow Light Snow
7:15 AM 21.2 °F 16.4 °F 17.6 °F 86% 29.76 in 7.0 mi ESE 3.5 mph - N/A Snow Light Snow
7:35 AM 23.0 °F 15.8 °F 19.4 °F 86% 29.75 in 10.0 mi East 5.8 mph - N/A Snow Light Snow
7:55 AM 21.2 °F 14.9 °F 19.4 °F 93% 29.74 in 1.0 mi ESE 4.6 mph - N/A Snow Light Snow
8:15 AM 23.0 °F - 19.4 °F 86% 29.74 in 0.5 mi Calm Calm - N/A Snow Snow
8:35 AM 23.0 °F - 21.2 °F 93% 29.74 in 0.8 mi Calm Calm - 0.01 in Snow Light Snow
9:15 AM 23.0 °F - 23.0 °F 100% 29.73 in 0.5 mi Calm Calm - 0.02 in Snow Snow
9:35 AM 23.0 °F 18.4 °F 23.0 °F 100% 29.71 in 0.5 mi East 3.5 mph - 0.04 in Snow Snow
9:55 AM 24.8 °F 17.9 °F 23.0 °F 93% 29.71 in 0.5 mi SE 5.8 mph - 0.05 in Snow Snow
10:15 AM 26.6 °F 22.6 °F 24.8 °F 93% 29.70 in 0.5 mi SE 3.5 mph - 0.01 in Snow Light Snow
10:35 AM 26.6 °F 20.0 °F 24.8 °F 93% 29.68 in 0.5 mi ESE 5.8 mph - 0.02 in Snow Light Snow
10:55 AM 26.6 °F 20.0 °F 24.8 °F 93% 29.68 in 2.5 mi SE 5.8 mph - 0.02 in Snow Light Snow
11:15 AM 26.6 °F 21.2 °F 24.8 °F 93% 29.67 in 0.5 mi ESE 4.6 mph - N/A Snow Snow
11:35 AM 26.6 °F 22.6 °F 26.6 °F 100% 29.66 in 0.5 mi ESE 3.5 mph - 0.01 in Snow Snow
11:55 AM 26.6 °F - 26.6 °F 100% 29.65 in 0.5 mi Calm Calm - 0.01 in Snow Snow
12:15 PM 26.6 °F - 26.6 °F 100% 29.64 in 0.8 mi Calm Calm - 0.01 in Snow Light Snow
12:35 PM 28.4 °F 24.6 °F 26.6 °F 93% 29.63 in 0.8 mi SE 3.5 mph - 0.02 in Snow Light Snow
12:55 PM 28.4 °F 24.6 °F 26.6 °F 93% 29.62 in 0.2 mi SSE 3.5 mph - 0.03 in Snow Snow
1:15 PM 28.4 °F 24.6 °F 28.4 °F 100% 29.61 in 0.5 mi SE 3.5 mph - 0.02 in Snow Snow
1:35 PM 28.4 °F - 28.4 °F 100% 29.60 in 0.5 mi Calm Calm - 0.03 in Snow Snow
1:55 PM 28.4 °F 24.6 °F 28.4 °F 100% 29.59 in 0.5 mi South 3.5 mph - 0.04 in Snow Snow
2:15 PM 30.2 °F - 30.2 °F 100% 29.58 in 0.8 mi Calm Calm - 0.01 in Snow Light Snow
2:35 PM 30.2 °F - 30.2 °F 100% 29.57 in 1.2 mi Calm Calm - 0.01 in Snow Light Snow
2:55 PM 30.2 °F 25.4 °F 30.2 °F 100% 29.56 in 1.8 mi South 4.6 mph - 0.02 in Snow Light Snow
3:15 PM 32.0 °F 27.5 °F 30.2 °F 93% 29.56 in 4.0 mi SW 4.6 mph - N/A Snow Light Snow
3:35 PM 30.2 °F 25.4 °F 30.2 °F 100% 29.56 in 2.5 mi WSW 4.6 mph - N/A Snow Light Snow
3:55 PM 28.4 °F 15.1 °F 23.0 °F 80% 29.58 in 5.0 mi West 20.7 mph 26.5 mph N/A   Overcast
4:15 PM 26.6 °F 13.8 °F 21.2 °F 80% 29.59 in 5.0 mi West 17.3 mph 23.0 mph N/A   Haze
4:35 PM 24.8 °F 13.4 °F 19.4 °F 80% 29.60 in 3.0 mi West 12.7 mph 23.0 mph N/A Snow Light Snow
4:55 PM 23.0 °F 9.2 °F 19.4 °F 86% 29.61 in 2.0 mi West 17.3 mph - N/A Snow Light Snow
5:15 PM 23.0 °F 10.1 °F 19.4 °F 86% 29.62 in 1.0 mi West 15.0 mph - N/A Snow Light Snow
5:35 PM 23.0 °F 10.6 °F 17.6 °F 80% 29.62 in 5.0 mi West 13.8 mph 20.7 mph N/A   Haze
5:55 PM 23.0 °F 9.6 °F 15.8 °F 74% 29.62 in 10.0 mi West 16.1 mph 20.7 mph N/A   Overcast
6:15 PM 23.0 °F 8.7 °F 14.0 °F 68% 29.63 in 2.0 mi West 18.4 mph 25.3 mph N/A Snow Light Snow
6:35 PM 21.2 °F 6.8 °F 15.8 °F 80% 29.64 in 2.5 mi West 17.3 mph 26.5 mph N/A Snow Light Snow
6:55 PM 19.4 °F 2.8 °F 12.2 °F 74% 29.65 in 4.0 mi West 21.9 mph 27.6 mph N/A   Haze
7:15 PM 19.4 °F 4.5 °F 12.2 °F 74% 29.66 in 4.0 mi West 17.3 mph 26.5 mph N/A Snow Light Snow
7:55 PM 19.4 °F 5.5 °F 12.2 °F 74% 29.67 in 4.0 mi West 15.0 mph 18.4 mph N/A Snow Light Snow
8:15 PM 19.4 °F 5.0 °F 12.2 °F 74% 29.67 in 10.0 mi West 16.1 mph 21.9 mph N/A   Overcast
8:35 PM 19.4 °F 4.1 °F 10.4 °F 68% 29.67 in 10.0 mi West 18.4 mph 25.3 mph N/A Snow Light Snow
9:15 PM 17.6 °F 5.0 °F 12.2 °F 79% 29.68 in 5.0 mi West 11.5 mph 17.3 mph N/A Snow Light Snow
9:35 PM 17.6 °F 5.7 °F 12.2 °F 79% 29.69 in 2.5 mi West 10.4 mph - N/A Snow Light Snow
9:55 PM 17.6 °F 5.0 °F 12.2 °F 79% 29.69 in 3.0 mi West 11.5 mph - N/A Snow Light Snow
10:15 PM 17.6 °F 3.2 °F 12.2 °F 79% 29.70 in 3.0 mi West 15.0 mph 19.6 mph N/A Snow Light Snow
10:35 PM 17.6 °F 5.0 °F 10.4 °F 73% 29.70 in 5.0 mi West 11.5 mph 16.1 mph N/A Snow Light Snow
10:55 PM 17.6 °F 4.3 °F 10.4 °F 73% 29.70 in 7.0 mi West 12.7 mph 18.4 mph N/A Snow Light Snow
11:15 PM 17.6 °F 3.7 °F 10.4 °F 73% 29.71 in 7.0 mi West 13.8 mph 21.9 mph N/A Snow Light Snow
11:35 PM 17.6 °F 3.2 °F 10.4 °F 73% 29.71 in 5.0 mi West 15.0 mph 19.6 mph N/A Snow Light Snow